Location: El Abasto
(10.3790°N, 67.5897°W)
Time: 18:51:31
(UTC+00:00)

ADEOS Rocket - Pass Details

Date: 19 May 2024
Orbit: 859 x 1305 km, 98.7° (Epoch: 12 June)

Event Time Altitude Azimuth Distance (km) Brightness Sun altitude
Rises 23:31:09 0° 172° (S) 3,458 5.6 -11.2°
Reaches altitude 10° 23:33:28 10° 175° (S) 2,547 4.9 -11.7°
Maximum altitude 23:39:04 71° 258° (WSW) 987 3.2 -13.0°
Drops below altitude 10° 23:45:12 10° 342° (NNW) 2,773 6.0 -14.3°
Sets 23:47:49 0° 344° (NNW) 3,788 6.7 -14.9°
